www.pogodaiklimat.ru

Погода и климат >> Архив погоды >> Антарктида >> Base san Martin


ПОГОДА в Base san Martin

  • Прогноз погоды в Base san Martin
  • Монитор погоды в Base san Martin
  • Климат города

АРХИВ ПОГОДЫ в Base san Martin

Время (UTC), дата Ветер
(напр.,м/с)
 
Видим.   Явления Облачность Т
(С)
Тd
(С)
f
(%)
Тe
(С)
Тes
(С)
Комфортность P
(гПа)
Po
(гПа)
Тmin
(С)
Tmax
(С)
R
(мм)
R24
(мм)
S
(см)
18 12.09 ЮЗ 2 500 м снег 10/10 120 м
[St]
-17.4 -17.4 100 -23 -23 968.1 967.2 2
21 12.09 СЗ 7 500 м снежные зёрна 10/10 120 м
[St]
-18.0 -18.0 100 -29 -29 964.8 963.8
00 13.09 З 7 500 м снежные зёрна 10/10 120 м
[St]
-22.4 -25.8 74 -35 -35 опасность
обморожения
965.3 964.4 -22.4 -16.4 1
03 13.09 СЗ 8 500 м снежные зёрна 10/10 150 м
[St]
-23.8 -26.2 81 -38 -38 опасность
обморожения
963.8 962.9
06 13.09 СЗ 9 400 м слабый снег {метель} 10/10 100 м
[St]
-24.6 -28.7 69 -39 -39 опасность
обморожения
962.8 961.8 1
09 13.09 СЗ 7 300 м снежные зёрна {метель} 10/10 120 м
[St]
-24.8 -26.0 90 -38 -38 опасность
обморожения
961.6 960.6
12 13.09 СЗ 5 2000 м снежные зёрна 10/10 180 м
[St]
-23.8 -23.8 100 -34 -34 опасность
обморожения
961.3 960.4 -25.1 -22.4 0.8 21
15 13.09 СВ 2 5000 м в посл. час снег 10/6 150 м
[St Cs]
-23.2 -24.3 91 -30 -29 961.0 960.1
18 13.09 СВ 2 20 км {снег} 8/0
[Cs]
-21.8 -21.8 100 -27 -25 961.2 960.2 0.0
21 13.09 В 2 20 км 8/0
[Cs]
-25.2 -26.5 89 -31 -30 опасность
обморожения
962.1 961.2
00 14.09 ЮВ 3 20 км 5/0
[Ci]
-26.8 -29.9 75 -36 -36 опасность
обморожения
963.8 962.9 -27.6 -21.6
03 14.09 ЮВ 3 20 км 5/0
[Ci]
-27.6 -29.1 87 -37 -37 опасность
обморожения
965.3 964.4
06 14.09 В 3 20 км 6/0
[Ci]
-28.5 -30.2 85 -37 -37 опасность
обморожения
965.7 964.8
09 14.09 В 1 20 км 6/0
[Ci]
-27.6 -29.1 87 -32 -32 опасность
обморожения
967.1 966.2
12 14.09 ЮВ 2 20 км 3/0
[Ci]
-30.4 -32.4 83 -37 -36 опасность
обморожения
968.8 967.8 -31.6 -25.8 0.0 21
15 14.09 штиль 0 20 км 3/0
[Ci]
-28.0 -31.4 73 -28 -25 970.5 969.6
18 14.09 ЮВ 2 20 км 4/0
[Ci]
-25.2 -27.9 78 -32 -30 опасность
обморожения
971.8 970.9
21 14.09 С 2 20 км 4/0
[Ci]
-27.0 -28.5 87 -33 -32 опасность
обморожения
972.9 972.0
00 15.09 СЗ 2 20 км 4/0
[Ci]
-28.8 -30.5 85 -35 -35 опасность
обморожения
973.3 972.2 -31.3 -24.6
03 15.09 ЮВ 4 20 км 4/0
[Ci]
-28.0 -28.0 100 -38 -38 опасность
обморожения
971.1 970.2
06 15.09 С 3 20 км 5/0
[Ci]
-29.0 -30.7 85 -38 -38 опасность
обморожения
969.2 968.2
09 15.09 ЮВ 3 20 км 4/0
[Ci]
-27.4 -30.7 73 -37 -37 опасность
обморожения
966.2 965.3
12 15.09 ЮВ 2 20 км 6/0
[Ci]
-27.6 -29.1 87 -35 -35 опасность
обморожения
963.7 962.8 -32.3 -26.6 21
15 15.09 С 3 20 км 8/3 90 м
[St Cs]
-26.0 -27.4 88 -35 -34 опасность
обморожения
960.5 959.6
18 15.09 В 14 3000 м позёмок {метель} 8/0
[Cs]
-25.8 -28.6 77 -44 -44 опасность
обморожения
957.8 956.9
21 15.09 В 13 5000 м позёмок {метель} 8/0
[Cs]
-15.6 -16.9 90 -29 -29 957.5 956.6
00 16.09 В 14 4000 м позёмок {метель} 6/0
[Cs]
-16.4 -17.1 94 -31 -31 опасность
обморожения
958.1 957.2 -28.1 -14.0
03 16.09 СВ 9 20 км {метель} 3/0
[Ci]
-15.2 -21.2 60 -27 -27 959.2 958.2
06 16.09 СВ 8 20 км 5/0
[Cs]
-16.0 -20.5 68 -27 -27 961.4 960.5
09 16.09 С 3 20 км 5/0
[Cs]
-17.4 -18.9 88 -24 -24 964.0 963.0
12 16.09 С 3 20 км 9/0
[Ci]
-19.4 -23.1 72 -26 -26 966.8 965.8 -20.4 -14.2 16
15 16.09 СЗ 4 20 км 9/0
[Ci]
-22.2 -25.5 74 -31 -30 опасность
обморожения
970.0 969.0
21 16.09 С 6 5000 м слабый снег 10/10 300 м
[St]
-20.0 -20.9 92 -31 -31 опасность
обморожения
975.0 974.1
00 17.09 В 4 20 км {снег} 6/6 300 м
[St]
-21.6 -22.6 92 -30 -30 974.1 973.2 -23.9 -19.0 0.4
03 17.09 ЮВ 3 20 км 3/3 450 м
[St]
-22.5 -23.5 92 -30 -30 972.2 971.3
06 17.09 ЮВ 6 20 км 3/3 450 м
[St]
-21.6 -22.6 92 -33 -33 опасность
обморожения
966.5 965.6
09 17.09 ЮВ 7 20 км 9/5 450 м
[St Ac As]
-20.2 -22.0 85 -32 -32 опасность
обморожения
957.8 956.9
12 17.09 штиль 0 5000 м снежные зёрна 10/5 600 м
[St Ac As Cs]
-18.2 -19.8 87 -18 -18 951.8 950.9 -23.0 -18.0 0.4 16
15 17.09 СВ 2 20 км 9/3 1050 м
[Sc diur, vesp Ac As Cs]
-17.4 -18.1 94 -22 -21 946.8 945.8
18 17.09 С 3 20 км 10/5 300 м
[St Ac As Cs]
-15.4 -16.7 90 -22 -22 946.0 945.0
21 17.09 В 15 100 м сильная метель ?/? -12.6 -13.7 91 -26 -26 947.6 946.6
00 18.09 В 13 6000 м позёмок {метель} 9/4 450 м
[St Cs]
-13.6 -14.2 95 -27 -27 950.9 950.0 -19.1 -11.0
03 18.09 В 13 6000 м позёмок {метель} 4/0
[Cs]
-13.8 -16.2 82 -27 -27 954.5 953.6
06 18.09 С 13 20 км {метель} 4/0
[Ac As]
-13.6 -14.7 91 -17 -17 957.9 957.0
09 18.09 СЗ 12 3000 м позёмок {метель} 9/5 300 м
[St Ac As]
-17.8 -18.5 94 -32 -32 опасность
обморожения
963.3 962.4
12 18.09 СЗ 9 4000 м слабый снег {метель} 10/6 240 м
[St Ac As]
-19.2 -19.2 100 -32 -32 опасность
обморожения
967.4 966.5 -19.2 -12.4 0.0 15
15 18.09 СЗ 7 1000 м снежные зёрна 10/10 240 м
[St]
-18.8 -22.3 74 -30 -30 970.1 969.2
18 18.09 СЗ 6 2500 м снежные зёрна 10/10 240 м
[St]
-18.6 -19.4 93 -29 -29 974.8 973.8 1
21 18.09 СЗ 4 2000 м снежные зёрна 10/10 240 м
[St]
-18.4 -19.2 93 -27 -27 977.8 976.9
00 19.09 С 2 2500 м снежные зёрна 9/9 240 м
[St]
-18.4 -20.0 87 -23 -23 979.7 978.8 -19.6 -18.2 0.5
03 19.09 В 4 20 км 3/1 450 м
[St Cs]
-20.2 -23.0 78 -29 -29 979.6 978.6
06 19.09 ЮВ 3 20 км 3/0
[Cs]
-21.4 -24.5 76 -29 -29 977.1 976.2 0.2
09 19.09 штиль 0 20 км 10/0
[Ac As Cs]
-18.8 -23.3 68 -19 -19 973.9 973.0
12 19.09 ЮВ 3 1500 м слабый снег 10/10 210 м
[St]
-18.0 -18.7 94 -25 -25 972.1 971.2 -23.1 -18.0 1 17

 

Местоположение метеостанции Base san Martin (Антарктида): широта -68.11 долгота -67.13 высота над уровнем моря 4 м.

В архиве по умолчанию представлена погода в Base san Martin за последнюю неделю. Архивные данные за месяц целиком и за предыдущие месяцы, начиная с января 2011 года, Вы можете получить, выбрав интересующий диапазон дат из раскрывающегося списка и нажав кнопку "Ввод!".

Внимание! Время в таблицах - всемирное. Для получения местного времени необходимо прибавить поправку, которая в Base san Martin равна 0 ч.

Смотрите также архив погоды в соседних городах и на ближайших метеорологических станциях:

Погода в Rothera (Антарктида) (74 км)
Погода в Larsen Ice (Антарктида) (267 км)
Погода в Vernadsky (Антарктида) (342 км)
Погода в Fossil Bluff (Антарктида) (361 км)
Погода в Palmer Station (Антарктида) (396 км)
Погода в Butler Island (Антарктида) (525 км)
Погода в Base Marambio (Антарктида) (635 км)
Погода в Bernardo o`Higgins (Антарктида) (679 км)
Погода в Juan Carlos I (Антарктида) (681 км)
Погода в Base Esperanza (Антарктида) (698 км)

Пояснения к столбцам:

Ветер - указаны скорость ветра в м/с - средняя за 10 мин, порывы в срок и между сроками (в фигурных скобках) и направление, откуда дует ветер: С - северный, СВ - северо-восточный, В - восточный, ЮВ - юго-восточный, Ю - южный, ЮЗ - юго-западный, З - западный, СЗ - северо-западный.
Видимость - горизонтальная дальность видимости в метрах или километрах. При видимости от 1 до 10 км при отсутствии осадков обычно наблюдается дымка, при ухудшении видимости до 1 км и менее - туман. В сухую погоду видимость может ухудшаться дымом, пылью или мглою.
Явления - указаны атмосферные явления, наблюдавшиеся в срок или в последний час перед сроком; фигурными скобками обозначены явления, наблюдавшиеся между сроками (за 1-3 часа до срока); квадратными скобками обозначены град или гололедные отложения с указанием их диаметра в мм.
Облачность - указаны через наклонную черту общая и нижняя облачность в баллах и высота нижней границы облаков в метрах; квадратными скобками обозначены формы облаков: Ci - перистые, Cs - перисто-слоистые, Cc - перисто-кучевые, Ac - высококучевые, As - высокослоистые, Sc - слоисто-кучевые, Ns - слоисто-дождевые, Cu - кучевые, Cb - кучево-дождевые. Подробнее классификацию облаков см. в Атласе облаков (PDF).
T - Температура воздуха - температура, измеренная на высоте 2 м над землей.
Td - Температура точки росы - температура, при понижении до которой содержащийся в воздухе водяной пар достигнет насыщения.
f - Относительная влажность воздуха - влажноcть воздуха, измеренная на высоте 2 м над землей.
Te - Эффективная температура - температура, которую ощущает одетый по сезону человек в тени. Характеристика душности погоды. При расчете учитывается влияние влажности воздуха и скорости ветра на теплоощущения человека.
Tes - Эффективная температура на солнце - температура, которую ощущает человек, с поправкой на солнечный нагрев. Характеристика знойности погоды. Зависит от высоты солнца над горизонтом, облачности и скорости ветра. Ночью, в пасмурную погоду, а также при ветре 12 м/с и более поправка равна нулю.
P - Атмосферное давление - приведенное к уровню моря атмосферное давление.
Po - Атмосферное давление - измеренное на уровне метеостанции атмосферное давление.
Tmin - Минимальная температура - минимум температуры воздуха на высоте 2 м над землей.
Tmax - Максимальная температура - максимум температуры воздуха на высоте 2 м над землей.
R - Количество осадков - Количество выпавших осадков за период времени, мм. При наведении курсора мыши на число - период времени, за который выпало указанное количество осадков.
R24 - Количество осадков - Количество выпавших осадков за 24 часа, мм.
S - Снежный покров - Высота снежного покрова, см. При наведении курсора мыши на число - состояние снежного покрова и степень покрытия местности в баллах.